Regional Weather Roundup
Issued by NWS

Home | Current Version | Previous Version | Text Only | Print | Product List | Glossary Off
Versions: 1 2 3 4 5 6 7 8 9 10 11 12 13 14 15 16 17 18 19 20 21 22 23 24 25 26 27 28 29 30 31 32 33 34 35 36 37 38 39 40 41 42 43 44 45 46 47 48 49 50

823
ASUS43 KDTX 280410
RWRMI
MICHIGAN HOURLY REGIONAL WEATHER ROUNDUP
NATIONAL WEATHER SERVICE DETROIT/PONTIAC MI
1100 PM EST MON FEB 27 2017

NOTE: "FAIR" INDICATES FEW OR NO CLOUDS BELOW 12,000 FEET WITH NO
SIGNIFICANT WEATHER AND/OR OBSTRUCTION TO VISIBILITY.

MIZ047>049-052>055-059>063-066>070-074>076-081>083-280500-
SOUTHEAST LOWER MICHIGAN

CITY           SKY/WX    TMP DP  RH WIND       PRES   REMARKS
ADRIAN         CLOUDY    38  37  97 S6        30.20S WCI  33
ALMA           PTCLDY    37  31  78 S5        30.15S WCI  33
ANN ARBOR      CLOUDY    40  37  89 SE6       30.19R
BAD AXE        CLOUDY    35  30  81 S6        30.19R WCI  30
CARO           CLEAR     35  30  81 CALM      30.17S
DETROIT CITY   PTCLDY    42  38  85 S12       30.21S
DETROIT        MOCLDY    41  37  86 S8        30.21S
FLINT          CLOUDY    39  32  76 S6        30.18R WCI  35
GROSSE ILE     CLEAR     37  36  94 CALM      30.21S
HILLSDALE      CLOUDY    37  34  87 SE6       30.16S WCI  33
HOWELL         PTCLDY    40  33  76 S7        30.17S

CITY           SKY/WX    TMP DP  RH WIND       PRES   REMARKS
JACKSON        CLOUDY    40  33  76 S7        30.17S
LAMBERTVILLE   CLOUDY    42  37  84 S5        30.20S
LANSING        CLOUDY    40  32  73 S9        30.16F WCI  34
LAPEER         FAIR      40  32  74 S5        30.19R
MASON          CLOUDY    39  34  82 S5        30.17S
MONROE         CLOUDY    38  37  94 SE6       30.21R WCI  34
MT. CLEMENS    PTCLDY    35  35  99 S3        30.19R
PONTIAC        PTCLDY    41  34  76 S6        30.17S
PORT HOPE        N/A     38  30  73 S6        30.16S WCI  33
PORT HURON     CLEAR     36  32  87 S3        30.22R
TRI CITIES     CLOUDY    40  32  73 S9        30.16S WCI  34
MIDLAND        FAIR      33  27  80 CALM      30.15S
TROY           CLEAR     43  37  78 S5        30.22S
SAGINAW HB     CLOUDY    36  30  80 S7        30.16S WCI  30
$$
MIZ043>046-050>051-056>058-064>065-071>073-077>080-280500-
SOUTHWEST LOWER MICHIGAN

CITY           SKY/WX    TMP DP  RH WIND       PRES   REMARKS
BATTLE CREEK   CLOUDY    42  36  79 S12       30.15S
BENTON HARBOR  CLOUDY    46  35  65 SE10      30.10F
BIG RAPIDS     CLEAR     28  25  88 CALM      30.12S
COLDWATER      CLOUDY    41  37  87 S6        30.15F
FREMONT        CLOUDY    38  27  63 SE6       30.11F WCI  34
HOLLAND        CLOUDY    39  32  76 SE8       30.12F WCI  33
GRAND RAPIDS   CLOUDY    38  30  73 S8        30.13S WCI  32
IONIA          FAIR      40  32  74 S9        30.14S WCI  33
KALAMAZOO      CLOUDY    43  33  68 S6        30.14F
LUDINGTON      CLOUDY    31  30  94 CALM      30.10R
MARSHALL       CLOUDY    41  36  83 SE6       30.15F
MOUNT PLEASANT CLOUDY    33  28  85 SE3       30.13S
MUSKEGON       CLOUDY    38  31  76 SE8       30.11S WCI  32
SOUTH HAVEN    PTCLDY    44  35  70 SE6       30.11F
$$
MIZ016>042-280500-
NORTHERN LOWER MICHIGAN

CITY           SKY/WX    TMP DP  RH WIND       PRES   REMARKS
ALPENA         CLOUDY    32  28  85 CALM      30.16S
BEAVER ISLAND  PTCLDY    24  22  93 CALM      30.10S
BELLAIRE       CLOUDY    28  25  90 CALM      30.12S
CADILLAC       PTCLDY    28  26  89 CALM      30.10S
CHARLEVOIX     PTCLDY    30  25  80 SE3       30.13S
FRANKFORT      PTCLDY    30  27  88 CALM      30.09F
GAYLORD        CLOUDY    32  22  66 CALM      30.10S
GRAYLING       CLOUDY    28  24  86 CALM      30.13S
HARBOR SPRINGS MOCLDY    30  24  78 E3        30.11F
HOUGHTON LAKE  CLOUDY    31  23  72 SE6       30.12S WCI  25
MANISTEE       CLOUDY    29  25  85 E5        30.10R WCI  24
OSCODA         PTCLDY    25  22  86 SW3       30.16S
PELLSTON       CLOUDY    27  21  78 CALM      30.12S
ROGERS CITY    CLOUDY    35  26  71 S8        30.15S WCI  28
TRAVERSE CITY  PTCLDY    35  24  64 CALM      30.10S
$$
MIZ007>008-015-280500-
EASTERN UPPER MICHIGAN

CITY           SKY/WX    TMP DP  RH WIND       PRES   REMARKS
KINROSS        CLOUDY    24  22  91 E8        30.11F WCI  15
MACKINAC ISLAN CLEAR     31  26  81 S8        30.10F WCI  23
NEWBERRY       CLEAR     26  22  86 S5        30.07F WCI  20
S. S. MARIE    CLEAR     25  20  81 E5        30.12S WCI  19
MUNISING         N/A     33  26  75 S8        30.04S WCI  26
$$
MIZ004>006-011>014-085-280500-
CENTRAL UPPER MICHIGAN

CITY           SKY/WX    TMP DP  RH WIND       PRES   REMARKS
MANISTIQUE     CLOUDY    32  31  98 SE5       30.07F WCI  27
MENOMINEE      CLOUDY    33  30  88 S3        30.05F
SAWYER-GWINN   MOCLDY    29  24  79 S7        30.01F WCI  22
$$
MIZ001>003-009>011-084-280500-
WESTERN UPPER MICHIGAN

CITY           SKY/WX    TMP DP  RH WIND       PRES   REMARKS
IRON MOUNTAIN  CLOUDY    31  23  72 SE5       30.00F WCI  26
HOUGHTON       MOCLDY    27  20  75 S5        29.94F WCI  22
COPPER HARBOR    N/A     25  21  85 SW8       29.96F WCI  16
IRONWOOD       CLEAR     35  17  47 S13G20    29.91S WCI  26
$$

ABBREVIATIONS USED IN REMARKS
   TC - TEMPERATURE IN CELSIUS
  WCI - WIND CHILL INDEX
   HX - HEAT INDEX
  VSB - VISIBILITY





USA.gov is the U.S. government's official web portal to all federal, state and local government web resources and services.